Change the Weather History Date:

Monday, September 2, 2013

  Actual Average Record
Temperature  
Mean Temperature 81 °F -  
Max Temperature 91 °F 91 °F 98 °F (1989)
Min Temperature 71 °F 69 °F 63 °F (2006)
Cooling Degree Days 16    
Growing Degree Days 31 (Base 50)    
Moisture  
Dew Point 72 °F    
Average Humidity 87    
Maximum Humidity 94    
Minimum Humidity 57    
Precipitation  
Precipitation 0.58 in - - ()
Sea Level Pressure  
Sea Level Pressure 29.96 in    
Wind  
Wind Speed 3 mph (WSW)    
Max Wind Speed 16 mph    
Max Gust Speed 22 mph    
Visibility 5 miles    
Events Rain , Thunderstorm    
Averages and records for this station are not official NWS values.
T = Trace of Precipitation, MM = Missing Value Source: NWS Daily Summary

Daily Weather History Graph

Daily Weather History Graph

Search for Another Location

Airport or City:

Trip Planner

Search our weather history database for the weather conditions in past years. The results will help you decide how hot, cold, wet, or windy it might be!

Date:

Astronomy

Sep. 02, 2013 Rise Set
Actual Time 6:23 AM CDT 7:07 PM CDT
Civil Twilight 5:58 AM CDT 7:32 PM CDT
Nautical Twilight 5:29 AM CDT 8:00 PM CDT
Astronomical Twilight 5:00 AM CDT 8:30 PM CDT
Moon 3:46 AM CDT (9/2) 5:15 PM CDT (9/2)
Length of Visible Light 13h 33m
Length of Day
12h 44m
Waning Crescent, 8% of the Moon is Illuminated
Sep 2
Waning Crescent
Sep 5
New
Sep 12
First Quarter
Sep 19
Full
Sep 26
Last Quarter

Hourly Weather History & Observations

Time (CDT) Temp. Heat Index Dew Point Humidity Pressure Visibility Wind Dir Wind Speed Gust Speed Precip Events Conditions
12:53 AM 75.0 °F - 71.1 °F 87% 29.95 in 8.0 mi SW 3.5 mph - N/A   Clear
1:53 AM 73.9 °F - 71.1 °F 91% 29.94 in 6.0 mi Calm Calm - N/A   Clear
2:53 AM 72.0 °F - 70.0 °F 93% 29.94 in 4.0 mi Calm Calm - N/A   Clear
3:53 AM 72.0 °F - 69.1 °F 91% 29.93 in 4.0 mi Calm Calm - N/A   Partly Cloudy
4:53 AM 72.0 °F - 69.1 °F 91% 29.93 in 5.0 mi Calm Calm - N/A   Clear
5:53 AM 71.1 °F - 69.1 °F 93% 29.94 in 4.0 mi Calm Calm - N/A   Clear
6:32 AM 71.6 °F - 69.8 °F 94% 29.96 in 2.5 mi Calm Calm - N/A   Clear
6:45 AM 71.6 °F - 69.8 °F 94% 29.96 in 3.0 mi Calm Calm - N/A   Clear
6:53 AM 71.1 °F - 69.1 °F 93% 29.95 in 3.0 mi Calm Calm - N/A   Clear
7:53 AM 77.0 °F - 73.0 °F 88% 29.98 in 5.0 mi Calm Calm - N/A   Clear
8:53 AM 82.9 °F 91.8 °F 77.0 °F 82% 29.98 in 10.0 mi WSW 6.9 mph - N/A   Partly Cloudy
9:41 AM 84.2 °F 94.1 °F 77.0 °F 79% 30.00 in 10.0 mi West 6.9 mph - N/A   Mostly Cloudy
9:49 AM 84.2 °F 92.3 °F 75.2 °F 74% 30.00 in 10.0 mi WSW 6.9 mph - N/A   Mostly Cloudy
9:53 AM 84.9 °F 94.1 °F 75.9 °F 74% 29.99 in 10.0 mi WSW 5.8 mph - N/A   Scattered Clouds
10:53 AM 89.1 °F 99.1 °F 75.0 °F 63% 29.99 in 10.0 mi WSW 5.8 mph - N/A   Clear
11:53 AM 91.0 °F 100.4 °F 73.9 °F 57% 29.98 in 10.0 mi WSW 8.1 mph - N/A Thunderstorm Partly Cloudy
12:53 PM 86.0 °F 92.2 °F 72.0 °F 63% 29.97 in 10.0 mi Variable 4.6 mph - 0.00 in Thunderstorm Thunderstorm
12:58 PM 82.4 °F 88.2 °F 73.4 °F 74% 29.98 in 1.5 mi NE 11.5 mph - 0.09 in Rain , Thunderstorm Heavy Thunderstorms and Rain
1:13 PM 77.0 °F - 73.4 °F 89% 29.98 in 3.0 mi East 6.9 mph - 0.12 in Rain , Thunderstorm Light Thunderstorms and Rain
1:23 PM 77.0 °F - 75.2 °F 94% 29.98 in 1.8 mi ESE 8.1 mph - 0.16 in Rain , Thunderstorm Heavy Thunderstorms and Rain
1:45 PM 75.2 °F - 73.4 °F 94% 29.96 in 3.0 mi SW 4.6 mph - 0.28 in Rain , Thunderstorm Light Thunderstorms and Rain
1:53 PM 78.1 °F - 73.0 °F 84% 29.96 in 7.0 mi WSW 10.4 mph - 0.28 in Rain , Thunderstorm Light Thunderstorms and Rain
2:07 PM 77.0 °F - 71.6 °F 83% 29.96 in 1.8 mi WSW 16.1 mph 21.9 mph 0.03 in Rain , Thunderstorm Heavy Thunderstorms and Rain
2:16 PM 77.0 °F - 71.6 °F 83% 29.96 in 0.5 mi West 16.1 mph - 0.22 in Rain , Thunderstorm Heavy Thunderstorms and Rain
2:25 PM 75.2 °F - 71.6 °F 89% 29.95 in 1.0 mi West 10.4 mph - 0.30 in Rain , Thunderstorm Heavy Thunderstorms and Rain
2:32 PM 75.2 °F - 71.6 °F 89% 29.96 in 3.0 mi SW 4.6 mph - 0.30 in Rain , Thunderstorm Light Thunderstorms and Rain
2:53 PM 75.9 °F - 72.0 °F 87% 29.96 in 5.0 mi NNW 4.6 mph - 0.30 in Rain , Thunderstorm Light Rain
3:53 PM 75.0 °F - 72.0 °F 90% 29.95 in 7.0 mi WSW 8.1 mph - 0.00 in Rain , Thunderstorm Light Rain
4:02 PM 75.2 °F - 71.6 °F 89% 29.95 in 6.0 mi SW 9.2 mph - 0.00 in   Partly Cloudy
4:19 PM 75.2 °F - 71.6 °F 89% 29.94 in 5.0 mi Calm Calm - 0.00 in Rain , Thunderstorm Light Thunderstorms and Rain
4:53 PM 75.0 °F - 72.0 °F 90% 29.91 in 3.0 mi SSE 4.6 mph - 0.00 in Rain , Thunderstorm Light Rain
5:05 PM 73.4 °F - 71.6 °F 94% 29.91 in 5.0 mi Calm Calm - 0.00 in Rain Light Rain
5:53 PM 75.0 °F - 72.0 °F 90% 29.92 in 9.0 mi Calm Calm - 0.00 in   Partly Cloudy
6:53 PM 75.0 °F - 71.1 °F 87% 29.93 in 10.0 mi Calm Calm - N/A   Clear
7:53 PM 73.9 °F - 72.0 °F 93% 29.93 in 8.0 mi Calm Calm - N/A   Clear
8:53 PM 73.0 °F - 71.1 °F 93% 29.95 in 6.0 mi Calm Calm - N/A   Clear
9:53 PM 73.0 °F - 71.1 °F 93% 29.96 in 6.0 mi Calm Calm - 0.00 in   Clear
10:19 PM 71.6 °F - 69.8 °F 94% 29.97 in 1.8 mi Calm Calm - N/A   Clear
10:30 PM 71.6 °F - 69.8 °F 94% 29.97 in 3.0 mi Calm Calm - N/A   Clear
10:43 PM 71.6 °F - 69.8 °F 94% 29.96 in 2.5 mi Calm Calm - N/A   Clear
10:50 PM 71.6 °F - 69.8 °F 94% 29.96 in 4.0 mi Calm Calm - N/A   Clear
10:53 PM 72.0 °F - 70.0 °F 93% 29.95 in 3.0 mi Calm Calm - N/A   Clear
11:05 PM 71.6 °F - 69.8 °F 94% 29.96 in 1.5 mi Calm Calm - N/A   Clear
11:16 PM 71.6 °F - 69.8 °F 94% 29.96 in 3.0 mi Calm Calm - N/A   Clear
11:53 PM 71.1 °F - 69.1 °F 93% 29.95 in 5.0 mi Calm Calm - N/A   Clear